Weather observations for the past three days for
North Myrtle Beach Grand Strand Airport
Imperial (Metric)
Date Time (edt) Wind (mph) Vis. (mi.) Weather Sky Cond. Temperature (ºF) Relative Humidity Wind Chill (°F) Heat Index (°F) Pressure Precipitation (in)
Air Dwpt 6 hour altimeter (in) sea level (mb) 1 hr 3 hr 6 hr
Max. Min.
05 22:53 S 7 10.00 Fair CLR 68 61 78% 30.04 1017.3
05 21:53 S 7 10.00 Fair CLR 68 60.1 76% 30.04 1017.2
05 20:53 S 8 10.00 Fair CLR 69.1 59 70% 30.03 1017.0
05 19:53 S 9 10.00 Fair CLR 69.1 60.1 75 69.1 73% 30.03 1017.0
05 18:53 S 12 10.00 Fair CLR 72 59 64% 30.03 1017.0
05 17:53 S 10 10.00 Fair CLR 73 57.9 59% 30.03 1017.1
05 16:53 SW 12 10.00 Fair CLR 73.9 59 60% 30.04 1017.2
05 15:53 S 13 10.00 Fair CLR 73 57.9 59% 30.04 1017.4
05 14:53 S 10 10.00 Fair CLR 73.9 57.9 57% 30.06 1018.1
05 13:53 S 10 10.00 Fair CLR 73 57 75 60.1 57% 30.07 1018.4
05 12:53 S 10 10.00 Fair CLR 73 57.9 59% 30.09 1018.9
05 11:53 S 10 10.00 Fair CLR 73 55.9 55% 30.1 1019.2
05 10:53 SW 8 G 17 10.00 Fair CLR 72 55.9 57% 30.09 1019.0
05 09:53 S 8 10.00 Fair CLR 72 57.9 61% 30.08 1018.8
05 08:53 SW 9 10.00 Fair CLR 70 57 64% 30.08 1018.5
05 07:53 Calm 10.00 Fair CLR 60.1 59 66 55.9 96% 30.07 1018.3
05 06:53 Calm 7.00 Fair CLR 57 57 100% 30.05 1017.6
05 05:53 Calm 10.00 Fair CLR 59 57.9 96% 30.03 1017.0
05 04:53 Calm 10.00 Fair CLR 57.9 57 97% 30.02 1016.6
05 03:53 W 3 10.00 Fair CLR 62.1 57.9 86% 30.02 1016.5
05 02:53 SW 9 10.00 Fair CLR 64.9 57 76% 30.02 1016.6
05 01:53 SW 9 10.00 Fair CLR 66 55.9 68 66 70% 30.03 1017.1
05 00:53 SW 10 10.00 Fair CLR 66.9 55 66% 30.05 1017.5
04 23:53 SW 9 10.00 Fair CLR 66 55.9 70% 30.05 1017.6
04 22:53 SW 9 10.00 Fair CLR 66.9 55 66% 30.05 1017.5
04 21:53 SW 14 10.00 Fair CLR 68 53.1 59% 30.05 1017.5
04 20:53 SW 13 10.00 Fair CLR 68 54 61% 30.03 1017.0
04 19:53 SW 13 10.00 Fair CLR 68 53.1 73 68 59% 30.02 1016.7
04 18:53 S 16 10.00 Fair CLR 70 52 53% 30.01 1016.4
04 17:53 S 13 G 26 10.00 Fair CLR 71.1 53.1 53% 30.02 1016.5
04 16:53 S 18 G 25 10.00 Fair CLR 72 53.1 52% 30.02 1016.6
04 15:53 S 16 10.00 Fair CLR 73 53.1 50% 30.03 1017.1
04 14:53 S 15 G 23 10.00 Fair CLR 72 54 53% 30.05 1017.6
04 13:53 S 13 G 24 10.00 Fair CLR 72 53.1 73 57.9 52% 30.06 1018.0
04 12:53 S 13 10.00 Fair CLR 71.1 53.1 53% 30.06 1018.1
04 11:53 S 12 10.00 Fair CLR 72 54 53% 30.08 1018.5
04 10:53 S 12 10.00 Fair CLR 71.1 51.1 49% 30.07 1018.5
04 09:53 SW 12 10.00 Fair CLR 70 48.9 47% 30.08 1018.6
04 08:53 W 7 10.00 Fair CLR 66 51.1 59% 30.08 1018.6
04 07:53 Calm 10.00 Fair CLR 57.9 54 57.9 50 87% 30.08 1018.6
04 06:53 Calm 10.00 Fair CLR 50 48.9 96% 30.08 1018.6
04 05:53 Calm 10.00 Fair CLR 50 48.9 96% 30.06 1018.0
04 04:53 Calm 10.00 Fair CLR 51.1 50 96% 30.07 1018.4
04 03:53 Calm 10.00 Fair CLR 52 50 93% 30.07 1018.4
04 02:53 Calm 10.00 Fair CLR 53.1 50 89% 30.08 1018.6
04 01:53 Calm 10.00 Fair CLR 55 50 63 54 83% 30.08 1018.8
04 00:53 W 3 10.00 Fair CLR 59 48.9 69% 30.08 1018.7
03 23:53 SW 12 10.00 Fair CLR 62.1 48 60% 30.09 1018.8
03 22:53 SW 12 10.00 Fair CLR 63 48 58% 30.09 1018.9
03 21:53 SW 13 10.00 Fair CLR 62.1 46.9 58% 30.08 1018.7
03 20:53 SW 12 10.00 Fair CLR 61 46.9 60% 30.06 1018.1
03 19:53 SW 14 10.00 Fair CLR 62.1 45 69.1 62.1 54% 30.05 1017.5
03 18:53 SW 15 10.00 Fair CLR 64 45 50% 30.03 1017.1
03 17:53 S 14 10.00 Fair CLR 64.9 43 45% 30.04 1017.3
03 16:53 S 12 10.00 Fair CLR 64.9 44.1 47% 30.03 1017.0
03 15:53 W 8 10.00 Fair CLR 66.9 39 36% 30.05 1017.7
03 14:53 W 9 10.00 Fair CLR 66.9 39 36% 30.07 1018.3
03 13:53 NW 12 G 18 10.00 Fair CLR 64.9 37.9 64.9 50 37% 30.09 1019.1
03 12:53 N 6 10.00 Fair CLR 63 37 38% 30.1 1019.3
03 11:53 N 9 G 21 10.00 Fair CLR 62.1 36 38% 30.12 1020.1
03 10:53 N 9 G 21 10.00 Fair CLR 61 36 39% 30.13 1020.2
03 09:53 N 10 G 17 10.00 Fair CLR 57.9 42.1 56% 30.12 1019.9
03 08:53 N 7 10.00 Fair CLR 54 44.1 69% 30.11 1019.6
03 07:53 N 6 10.00 Fair CLR 50 45 50 46.9 83% 48 30.09 1019.0
03 06:53 N 5 9.00 Fair CLR 46.9 46 97% 45 30.06 1018.1
03 05:53 NW 3 9.00 Fair CLR 46.9 46 97% 30.03 1017.1
03 04:53 NW 3 5.00 Fog/Mist FEW002 48 46.9 96% 30.02 1016.7
03 03:53 NW 3 1.75 Fog/Mist OVC002 48.9 48 97% 30.01 1016.4
03 02:53 NW 3 6.00 Fog/Mist BKN002 50 48.9 96% 29.99 1015.7
03 01:53 NW 3 7.00 Partly Cloudy SCT003 50 48.9 55.9 50 96% 29.98 1015.3
03 00:53 NW 5 10.00 Mostly Cloudy BKN009 52 51.1 97% 29.98 1015.3
02 23:53 NW 5 10.00 Overcast OVC110 52 51.1 97% 29.96 1014.4
Date Time (edt) Wind (mph) Vis. (mi.) Weather Sky Cond. Air Dwpt Max. Min. Relative Humidity Wind Chill (°F) Heat Index (°F) altimeter (in) sea level (mb) 1 hr 3 hr 6 hr
6 hour
Temperature (ºF) Pressure Precipitation (in)